Year,Month,Day,Hour,Minute,Value (Times are PST for windgust in km/hr)
2022,06,14,00,48,3.20
2022,06,14,00,51,3.20
2022,06,14,00,54,1.60
2022,06,14,00,55,1.60
2022,06,14,01,04,1.60
2022,06,14,03,44,1.60
2022,06,14,07,16,6.40
2022,06,14,07,17,4.80
2022,06,14,07,19,3.20
2022,06,14,07,20,3.20
2022,06,14,07,24,1.60
2022,06,14,07,25,1.60
2022,06,14,07,26,1.60
2022,06,14,07,27,1.60
2022,06,14,07,33,3.20
2022,06,14,07,34,6.40
2022,06,14,07,35,1.60
2022,06,14,07,38,3.20
2022,06,14,07,42,3.20
2022,06,14,08,09,3.20
2022,06,14,08,10,4.80
2022,06,14,08,11,3.20
2022,06,14,08,12,4.80
2022,06,14,08,14,1.60
2022,06,14,08,16,1.60
2022,06,14,08,17,3.20
2022,06,14,08,18,3.20
2022,06,14,08,19,3.20
2022,06,14,08,20,3.20
2022,06,14,08,23,1.60
2022,06,14,08,49,3.20
2022,06,14,08,50,1.60
2022,06,14,08,51,1.60
2022,06,14,08,52,3.20
2022,06,14,08,53,1.60
2022,06,14,08,54,1.60
2022,06,14,08,55,3.20
2022,06,14,08,56,1.60
2022,06,14,09,12,6.40
2022,06,14,09,13,4.80
2022,06,14,09,14,4.80
2022,06,14,09,15,3.20
2022,06,14,09,16,3.20
2022,06,14,09,17,3.20
2022,06,14,09,18,1.60
2022,06,14,09,19,4.80
2022,06,14,09,20,1.60
2022,06,14,09,23,3.20
2022,06,14,09,24,3.20
2022,06,14,09,25,1.60
2022,06,14,09,26,3.20
2022,06,14,09,27,9.60
2022,06,14,09,28,8.10
2022,06,14,09,29,6.40
2022,06,14,14,01,3.20
2022,06,14,14,03,3.20
2022,06,14,14,04,6.40
2022,06,14,14,05,6.40
2022,06,14,14,06,9.60
2022,06,14,14,07,8.10
2022,06,14,14,08,6.40
2022,06,14,14,09,8.10
2022,06,14,14,10,9.60
2022,06,14,14,11,9.60
2022,06,14,14,12,9.60
2022,06,14,14,13,6.40
2022,06,14,14,14,9.60
2022,06,14,14,15,9.60
2022,06,14,14,16,11.30
2022,06,14,14,17,9.60
2022,06,14,14,18,9.60
2022,06,14,14,19,9.60
2022,06,14,14,20,9.60
2022,06,14,14,21,9.60
2022,06,14,14,22,11.30
2022,06,14,14,23,11.30
2022,06,14,14,24,8.10
2022,06,14,14,25,9.60
2022,06,14,14,26,9.60
2022,06,14,14,27,9.60
2022,06,14,14,28,9.60
2022,06,14,14,29,11.30
2022,06,14,14,30,9.60
2022,06,14,14,31,11.30
2022,06,14,14,32,11.30
2022,06,14,14,33,11.30
2022,06,14,14,34,9.60
2022,06,14,14,35,11.30
2022,06,14,14,36,11.30
2022,06,14,14,37,9.60
2022,06,14,14,38,9.60
2022,06,14,14,39,9.60
2022,06,14,14,40,9.60
2022,06,14,14,41,11.30
2022,06,14,14,42,9.60
2022,06,14,14,43,11.30
2022,06,14,14,44,11.30
2022,06,14,14,45,9.60
2022,06,14,14,46,11.30
2022,06,14,14,47,11.30
2022,06,14,14,48,11.30
2022,06,14,14,49,9.60
2022,06,14,14,50,9.60
2022,06,14,14,51,11.30
2022,06,14,14,52,11.30
2022,06,14,14,53,11.30
2022,06,14,14,54,11.30
2022,06,14,14,55,11.30
2022,06,14,14,56,11.30
2022,06,14,14,57,11.30
2022,06,14,14,58,11.30
2022,06,14,14,59,11.30
2022,06,14,15,00,11.30
2022,06,14,15,01,9.60
2022,06,14,15,02,11.30
2022,06,14,15,03,11.30
2022,06,14,15,04,11.30
2022,06,14,15,05,9.60
2022,06,14,15,06,11.30
2022,06,14,15,07,11.30
2022,06,14,15,08,11.30
2022,06,14,15,09,9.60
2022,06,14,15,10,11.30
2022,06,14,15,11,11.30
2022,06,14,15,12,11.30
2022,06,14,15,13,11.30
2022,06,14,15,14,11.30
2022,06,14,15,15,11.30
2022,06,14,15,16,11.30
2022,06,14,15,17,11.30
2022,06,14,15,18,11.30
2022,06,14,15,19,12.90
2022,06,14,15,20,12.90
2022,06,14,15,21,9.60
2022,06,14,15,22,12.90
2022,06,14,15,23,11.30
2022,06,14,15,24,11.30
2022,06,14,15,25,11.30
2022,06,14,15,26,12.90
2022,06,14,15,27,11.30
2022,06,14,15,28,11.30
2022,06,14,15,29,11.30
2022,06,14,15,30,11.30
2022,06,14,15,31,11.30
2022,06,14,15,32,11.30
2022,06,14,15,33,12.90
2022,06,14,15,34,12.90
2022,06,14,15,35,11.30
2022,06,14,15,36,11.30
2022,06,14,15,37,11.30
2022,06,14,15,38,11.30
2022,06,14,15,39,11.30
2022,06,14,15,40,12.90
2022,06,14,15,41,11.30
2022,06,14,15,42,11.30
2022,06,14,15,43,12.90
2022,06,14,15,44,11.30
2022,06,14,15,45,9.60
2022,06,14,15,46,12.90
2022,06,14,15,47,11.30
2022,06,14,15,48,11.30
2022,06,14,15,49,9.60
2022,06,14,15,50,11.30
2022,06,14,15,51,12.90
2022,06,14,15,52,12.90
2022,06,14,15,53,9.60
2022,06,14,15,54,9.60
2022,06,14,15,55,12.90
2022,06,14,15,56,9.60
2022,06,14,15,57,9.60
2022,06,14,15,58,9.60
2022,06,14,15,59,12.90
2022,06,14,16,00,12.90
2022,06,14,16,01,9.60
2022,06,14,16,02,9.60
2022,06,14,16,03,9.60
2022,06,14,16,04,12.90
2022,06,14,16,05,9.60
2022,06,14,16,06,12.90
2022,06,14,16,07,12.90
2022,06,14,16,08,9.60
2022,06,14,16,09,11.30
2022,06,14,16,10,11.30
2022,06,14,16,11,11.30
2022,06,14,16,12,12.90
2022,06,14,16,13,11.30
2022,06,14,16,14,11.30
2022,06,14,16,15,9.60
2022,06,14,16,16,11.30
2022,06,14,16,17,11.30
2022,06,14,16,18,11.30
2022,06,14,16,19,12.90
2022,06,14,16,20,9.60
2022,06,14,16,21,9.60
2022,06,14,16,22,11.30
2022,06,14,16,23,12.90
2022,06,14,16,24,11.30
2022,06,14,16,25,9.60
2022,06,14,16,26,12.90
2022,06,14,16,27,12.90
2022,06,14,16,28,12.90
2022,06,14,16,29,9.60
2022,06,14,16,30,9.60
2022,06,14,16,31,9.60
2022,06,14,16,32,9.60
2022,06,14,16,33,12.90
2022,06,14,16,34,12.90
2022,06,14,16,35,8.10
2022,06,14,16,36,9.60
2022,06,14,16,37,9.60
2022,06,14,16,38,9.60
2022,06,14,16,39,12.90
2022,06,14,16,40,9.60
2022,06,14,16,41,9.60
2022,06,14,16,42,12.90
2022,06,14,16,43,12.90
2022,06,14,16,44,12.90
2022,06,14,16,45,12.90
2022,06,14,16,46,12.90
2022,06,14,16,47,12.90
2022,06,14,16,48,12.90
2022,06,14,16,49,12.90
2022,06,14,16,50,9.60
2022,06,14,16,51,12.90
2022,06,14,16,52,12.90
2022,06,14,16,53,12.90
2022,06,14,16,54,12.90
2022,06,14,16,55,9.60
2022,06,14,16,56,12.90
2022,06,14,16,57,9.60
2022,06,14,16,58,12.90
2022,06,14,16,59,9.60
2022,06,14,17,00,9.60
2022,06,14,17,01,12.90
2022,06,14,17,02,12.90
2022,06,14,17,03,12.90
2022,06,14,17,04,12.90
2022,06,14,17,05,12.90
2022,06,14,17,06,12.90
2022,06,14,17,07,12.90
2022,06,14,17,08,12.90
2022,06,14,17,09,12.90
2022,06,14,17,10,12.90
2022,06,14,17,11,9.60
2022,06,14,17,12,9.60
2022,06,14,17,13,9.60
2022,06,14,17,14,9.60
2022,06,14,17,15,12.90
2022,06,14,17,16,9.60
2022,06,14,17,17,12.90
2022,06,14,17,18,12.90
2022,06,14,17,19,9.60
2022,06,14,17,20,12.90
2022,06,14,17,21,9.60
2022,06,14,17,22,9.60
2022,06,14,17,23,12.90
2022,06,14,17,24,9.60
2022,06,14,17,25,14.50
2022,06,14,17,26,9.60
2022,06,14,17,27,12.90
2022,06,14,17,28,9.60
2022,06,14,17,29,12.90
2022,06,14,17,30,12.90
2022,06,14,17,31,12.90
2022,06,14,17,32,12.90
2022,06,14,17,33,12.90
2022,06,14,17,34,14.50
2022,06,14,17,35,12.90
2022,06,14,17,36,9.60
2022,06,14,17,37,12.90
2022,06,14,17,38,14.50
2022,06,14,17,39,12.90
2022,06,14,17,40,14.50
2022,06,14,17,41,12.90
2022,06,14,17,42,12.90
2022,06,14,17,43,12.90
2022,06,14,17,44,12.90
2022,06,14,17,45,12.90
2022,06,14,17,46,12.90
2022,06,14,17,47,12.90
2022,06,14,17,48,12.90
2022,06,14,17,49,12.90
2022,06,14,17,50,12.90
2022,06,14,17,51,9.60
2022,06,14,17,52,14.50
2022,06,14,17,53,12.90
2022,06,14,17,54,14.50
2022,06,14,17,55,14.50
2022,06,14,17,56,12.90
2022,06,14,17,57,9.60
2022,06,14,17,58,12.90
2022,06,14,17,59,12.90
2022,06,14,18,00,12.90
2022,06,14,18,01,12.90
2022,06,14,18,02,12.90
2022,06,14,18,03,12.90
2022,06,14,18,04,12.90
2022,06,14,18,05,11.30
2022,06,14,18,06,12.90
2022,06,14,18,07,12.90
2022,06,14,18,08,12.90
2022,06,14,18,09,11.30
2022,06,14,18,10,12.90
2022,06,14,18,11,9.60
2022,06,14,18,12,12.90
2022,06,14,18,13,12.90
2022,06,14,18,14,8.10
2022,06,14,18,15,12.90
2022,06,14,18,16,8.10
2022,06,14,18,17,6.40
2022,06,14,18,18,9.60
2022,06,14,18,19,9.60
2022,06,14,18,20,9.60
2022,06,14,18,21,9.60
2022,06,14,18,22,8.10
2022,06,14,18,23,9.60
2022,06,14,18,24,8.10
2022,06,14,18,25,8.10
2022,06,14,18,26,6.40
2022,06,14,18,27,8.10
2022,06,14,18,28,8.10
2022,06,14,18,29,6.40
2022,06,14,18,30,8.10
2022,06,14,18,31,8.10
2022,06,14,18,32,8.10
2022,06,14,18,33,8.10
2022,06,14,18,34,8.10
2022,06,14,18,35,6.40
2022,06,14,18,36,6.40
2022,06,14,18,37,6.40
2022,06,14,18,38,8.10
2022,06,14,18,39,8.10
2022,06,14,18,40,4.80
2022,06,14,18,41,9.60
2022,06,14,18,42,6.40
2022,06,14,18,43,6.40
2022,06,14,18,44,9.60
2022,06,14,18,45,9.60
2022,06,14,18,46,6.40
2022,06,14,18,47,6.40
2022,06,14,18,48,6.40
2022,06,14,18,49,6.40
2022,06,14,18,50,4.80
2022,06,14,18,51,4.80
2022,06,14,18,52,6.40
2022,06,14,18,53,6.40
2022,06,14,18,54,6.40
2022,06,14,18,55,8.10
2022,06,14,18,56,4.80
2022,06,14,18,57,4.80
2022,06,14,18,58,4.80
2022,06,14,19,05,3.20
2022,06,14,19,06,3.20
2022,06,14,19,07,4.80
2022,06,14,19,08,6.40
2022,06,14,19,09,6.40
2022,06,14,19,10,3.20
2022,06,14,19,11,3.20
2022,06,14,19,12,4.80
2022,06,14,19,13,3.20
2022,06,14,19,15,3.20
2022,06,14,19,16,3.20
2022,06,14,19,17,3.20
2022,06,14,19,18,1.60
2022,06,14,19,19,3.20
2022,06,14,19,20,1.60
2022,06,14,19,21,3.20
2022,06,14,19,22,3.20
2022,06,14,19,23,3.20
2022,06,14,19,24,4.80
2022,06,14,19,25,4.80
2022,06,14,19,26,4.80
2022,06,14,19,55,4.80
2022,06,14,19,56,1.60
2022,06,14,19,57,3.20
2022,06,14,19,58,3.20
2022,06,14,19,59,1.60
2022,06,14,20,00,4.80
2022,06,14,20,01,1.60
2022,06,14,20,03,3.20
2022,06,14,20,04,3.20
2022,06,14,20,05,1.60
2022,06,14,20,06,1.60
2022,06,14,20,08,3.20
2022,06,14,20,09,1.60
2022,06,14,20,10,1.60
2022,06,14,20,11,3.20
2022,06,14,20,12,4.80
2022,06,14,20,13,1.60
2022,06,14,20,38,3.20
2022,06,14,20,39,1.60
2022,06,14,23,09,1.60
